Location: B?ezina
(49.8085°N, 13.6013°E)
Time: 19:42:41
(UTC+00:00)

Cosmos 2123 Rocket - Pass Details

Date: 19 May 2025
Orbit: 960 x 992 km, 82.9° (Epoch: 20 June)

Event Time Altitude Azimuth Distance (km) Brightness Sun altitude
Exits shadow 23:30:43 31° 160° (SSE) 1,674 4.7 -19.9°
Maximum altitude 23:33:46 60° 93° (E) 1,125 4.3 -19.9°
Drops below altitude 10° 23:40:00 10° 15° (NNE) 2,764 7.6 -19.7°
Sets 23:42:33 0° 12° (NNE) 3,714 8.7 -19.6°
